TimeEST,TemperatureF,Dew PointF,Humidity,Sea Level PressureIn,VisibilityMPH,Wind Direction,Wind SpeedMPH,Gust SpeedMPH,PrecipitationIn,Events,Conditions,WindDirDegrees,DateUTC
12:15 AM,35.6,35.6,100,30.11,2.5,Calm,Calm,-,N/A,,Clear,0,2013-02-15 05:15:00
12:35 AM,34.2,34.2,100,30.11,3.0,Calm,Calm,-,N/A,,Clear,0,2013-02-15 05:35:00
12:55 AM,33.8,33.8,100,30.11,4.0,Calm,Calm,-,N/A,,Clear,0,2013-02-15 05:55:00
1:15 AM,32.0,32.0,100,30.10,5.0,Calm,Calm,-,N/A,,Clear,0,2013-02-15 06:15:00
1:35 AM,31.5,31.5,100,30.10,7.0,NW,3.5,-,N/A,,Clear,320,2013-02-15 06:35:00
1:55 AM,31.5,31.5,100,30.09,5.0,NW,3.5,-,N/A,,Clear,320,2013-02-15 06:55:00
2:15 AM,30.4,30.4,100,30.09,7.0,Calm,Calm,-,N/A,,Clear,0,2013-02-15 07:15:00
2:35 AM,31.1,31.1,100,30.09,5.0,Calm,Calm,-,N/A,,Clear,0,2013-02-15 07:35:00
2:55 AM,30.9,30.9,100,30.09,10.0,Calm,Calm,-,N/A,,Clear,0,2013-02-15 07:55:00
3:15 AM,31.3,31.3,100,30.10,10.0,Calm,Calm,-,N/A,,Clear,0,2013-02-15 08:15:00
3:35 AM,31.5,31.5,100,30.10,5.0,Calm,Calm,-,N/A,,Clear,0,2013-02-15 08:35:00
3:55 AM,30.6,30.6,100,30.10,7.0,Calm,Calm,-,N/A,,Clear,0,2013-02-15 08:55:00
4:15 AM,30.9,30.9,100,30.10,10.0,Calm,Calm,-,N/A,,Clear,0,2013-02-15 09:15:00
4:35 AM,30.9,30.9,100,30.09,4.0,Calm,Calm,-,N/A,,Clear,0,2013-02-15 09:35:00
4:55 AM,30.2,30.2,100,30.11,10.0,Calm,Calm,-,N/A,,Clear,0,2013-02-15 09:55:00
5:15 AM,30.0,30.0,100,30.12,4.0,Calm,Calm,-,N/A,,Clear,0,2013-02-15 10:15:00
5:35 AM,29.5,29.5,100,30.12,7.0,Calm,Calm,-,N/A,,Clear,0,2013-02-15 10:35:00
5:55 AM,29.3,29.3,100,30.12,7.0,Calm,Calm,-,N/A,,Clear,0,2013-02-15 10:55:00
6:15 AM,29.3,29.3,100,30.13,7.0,Calm,Calm,-,N/A,,Clear,0,2013-02-15 11:15:00
6:35 AM,29.3,29.3,100,30.14,5.0,Calm,Calm,-,N/A,,Clear,0,2013-02-15 11:35:00
6:55 AM,28.9,28.9,100,30.14,7.0,Calm,Calm,-,N/A,,Clear,0,2013-02-15 11:55:00
7:15 AM,28.9,28.9,100,30.14,10.0,Calm,Calm,-,N/A,,Clear,0,2013-02-15 12:15:00
7:35 AM,29.5,29.5,100,30.14,7.0,Calm,Calm,-,N/A,,Clear,0,2013-02-15 12:35:00
7:55 AM,30.9,30.9,100,30.15,10.0,Calm,Calm,-,N/A,,Scattered Clouds,0,2013-02-15 12:55:00
8:15 AM,32.0,32.0,100,30.15,10.0,Calm,Calm,-,N/A,,Clear,0,2013-02-15 13:15:00
8:35 AM,33.8,33.8,100,30.15,5.0,Calm,Calm,-,N/A,,Clear,0,2013-02-15 13:35:00
8:55 AM,36.5,36.5,100,30.16,10.0,Calm,Calm,-,N/A,,Clear,0,2013-02-15 13:55:00
9:15 AM,39.9,38.8,96,30.16,10.0,Calm,Calm,-,N/A,,Clear,0,2013-02-15 14:15:00
9:35 AM,41.9,40.3,94,30.16,10.0,Calm,Calm,-,N/A,,Clear,0,2013-02-15 14:35:00
9:55 AM,44.4,41.4,89,30.16,10.0,Calm,Calm,-,N/A,,Clear,0,2013-02-15 14:55:00
10:15 AM,46.9,41.7,82,30.16,10.0,Calm,Calm,-,N/A,,Clear,0,2013-02-15 15:15:00
10:35 AM,49.6,42.8,77,30.16,10.0,Calm,Calm,-,N/A,,Clear,0,2013-02-15 15:35:00
10:55 AM,51.1,41.5,70,30.16,10.0,Calm,Calm,-,N/A,,Clear,0,2013-02-15 15:55:00
11:15 AM,53.6,41.5,64,30.16,10.0,North,4.6,-,N/A,,Clear,350,2013-02-15 16:15:00
11:35 AM,54.7,40.5,59,30.15,10.0,Calm,Calm,-,N/A,,Clear,0,2013-02-15 16:35:00
11:55 AM,56.5,40.5,55,30.14,10.0,Calm,Calm,-,N/A,,Clear,0,2013-02-15 16:55:00
12:15 PM,57.2,39.4,51,30.13,10.0,Calm,Calm,-,N/A,,Clear,0,2013-02-15 17:15:00
12:35 PM,57.6,38.8,50,30.12,10.0,Calm,Calm,-,N/A,,Clear,0,2013-02-15 17:35:00
1:15 PM,59.7,35.8,41,30.10,10.0,Calm,Calm,-,N/A,,Clear,0,2013-02-15 18:15:00
1:35 PM,59.9,36.9,42,30.09,10.0,Calm,Calm,-,N/A,,Clear,0,2013-02-15 18:35:00
1:55 PM,61.0,36.1,40,30.07,10.0,Calm,Calm,-,N/A,,Clear,0,2013-02-15 18:55:00
2:15 PM,61.7,36.9,40,30.06,10.0,West,4.6,-,N/A,,Clear,260,2013-02-15 19:15:00
2:35 PM,61.7,37.6,41,30.05,10.0,West,8.1,-,N/A,,Clear,280,2013-02-15 19:35:00
2:55 PM,61.9,36.5,39,30.04,10.0,NW,3.5,-,N/A,,Clear,320,2013-02-15 19:55:00
3:15 PM,62.6,36.9,38,30.03,10.0,West,3.5,-,N/A,,Clear,270,2013-02-15 20:15:00
3:35 PM,62.6,35.6,37,30.03,10.0,Calm,Calm,-,N/A,,Clear,0,2013-02-15 20:35:00
3:55 PM,62.8,36.7,38,30.02,10.0,WNW,6.9,-,N/A,,Clear,290,2013-02-15 20:55:00
4:15 PM,62.8,35.8,37,30.01,10.0,WNW,6.9,-,N/A,,Clear,300,2013-02-15 21:15:00
4:35 PM,63.3,37.0,38,30.01,10.0,West,4.6,-,N/A,,Clear,270,2013-02-15 21:35:00
4:55 PM,62.2,36.3,38,30.01,10.0,West,3.5,-,N/A,,Clear,260,2013-02-15 21:55:00
5:15 PM,61.7,36.1,39,30.01,10.0,West,8.1,-,N/A,,Clear,280,2013-02-15 22:15:00
5:35 PM,60.6,37.0,42,30.02,10.0,WSW,4.6,-,N/A,,Clear,250,2013-02-15 22:35:00
6:15 PM,55.9,38.5,52,30.03,10.0,West,3.5,-,N/A,,Clear,270,2013-02-15 23:15:00
6:35 PM,52.5,39.2,61,30.03,10.0,Calm,Calm,-,N/A,,Clear,0,2013-02-15 23:35:00
6:55 PM,49.3,39.9,70,30.03,10.0,Calm,Calm,-,N/A,,Clear,0,2013-02-15 23:55:00
7:15 PM,48.0,39.4,72,30.03,10.0,Calm,Calm,-,N/A,,Clear,0,2013-02-16 00:15:00
7:35 PM,46.9,39.6,76,30.03,10.0,Calm,Calm,-,N/A,,Clear,0,2013-02-16 00:35:00
7:55 PM,45.5,39.4,79,30.03,10.0,Calm,Calm,-,N/A,,Clear,0,2013-02-16 00:55:00
8:15 PM,44.6,39.6,82,30.02,10.0,Calm,Calm,-,N/A,,Clear,0,2013-02-16 01:15:00
8:35 PM,43.0,39.6,88,30.01,10.0,Calm,Calm,-,N/A,,Clear,0,2013-02-16 01:35:00
8:55 PM,42.8,39.6,88,30.02,10.0,Calm,Calm,-,N/A,,Clear,0,2013-02-16 01:55:00
9:15 PM,41.4,39.6,93,30.02,10.0,Calm,Calm,-,N/A,,Clear,0,2013-02-16 02:15:00
9:35 PM,40.1,38.7,95,30.02,10.0,Calm,Calm,-,N/A,,Clear,0,2013-02-16 02:35:00
9:55 PM,39.6,38.7,97,30.02,10.0,Calm,Calm,-,N/A,,Clear,0,2013-02-16 02:55:00
10:15 PM,38.3,37.6,97,30.03,10.0,Calm,Calm,-,N/A,,Clear,0,2013-02-16 03:15:00
10:35 PM,37.6,37.6,100,30.02,10.0,Calm,Calm,-,N/A,,Clear,0,2013-02-16 03:35:00
10:55 PM,37.4,37.4,100,30.03,10.0,WNW,3.5,-,N/A,,Clear,300,2013-02-16 03:55:00
11:15 PM,37.2,37.2,100,30.03,10.0,Calm,Calm,-,N/A,,Clear,0,2013-02-16 04:15:00
11:35 PM,36.9,36.9,100,30.02,10.0,Calm,Calm,-,N/A,,Clear,0,2013-02-16 04:35:00
11:55 PM,36.5,36.5,100,30.01,10.0,NW,3.5,-,N/A,,Clear,310,2013-02-16 04:55:00